Weather History for Amsterdam Airport Schiphol, Netherlands

Change the Weather History Date:

Thursday, August 15, 2013

  Actual Average Record
Temperature  
Mean Temperature 62 °F -  
Max Temperature 72 °F 66 °F - ()
Min Temperature 51 °F 53 °F - ()
Degree Days  
Heating Degree Days 4    
Growing Degree Days 12 (Base 50)    
Moisture  
Dew Point 57 °F    
Average Humidity 83    
Maximum Humidity 100    
Minimum Humidity 55    
Precipitation  
Precipitation 0.08 in - - ()
Sea Level Pressure  
Sea Level Pressure 30.11 in    
Wind  
Wind Speed 6 mph ()    
Max Wind Speed 17 mph    
Max Gust Speed -    
Visibility 5.9 miles    
Events Rain    
T = Trace of Precipitation, MM = Missing Value Source: Averaged Metar Reports

Daily Weather History Graph

Daily Weather History Graph

Search for Another Location

Airport:

Trip Planner

Search our weather history database for the weather conditions in past years. The results will help you decide how hot, cold, wet, or windy it might be!

Date:

Astronomy

Aug. 15, 2013 Rise Set
Actual Time 6:24 AM CEST 9:05 PM CEST
Civil Twilight 5:45 AM CEST 9:43 PM CEST
Nautical Twilight 4:55 AM CEST 10:32 PM CEST
Astronomical Twilight 3:54 AM CEST 11:32 PM CEST
Moon 4:19 PM CEST (8/15) 12:10 AM CEST (8/15)
Length of Visible Light 15h 58m
Length of Day
14h 41m
First Quarter, 61% of the Moon is Illuminated
Aug 15
First Quarter
Aug 21
Full
Aug 28
Last Quarter
Sep 5
New
Sep 12
First Quarter

Hourly Weather History & Observations

Time (CEST) Temp. Dew Point Humidity Pressure Visibility Wind Dir Wind Speed Gust Speed Precip Events Conditions
12:25 AM 55.4 °F 50.0 °F 82% 30.18 in - SE 1.2 mph - N/A   Clear
12:55 AM 57.2 °F 50.0 °F 77% 30.18 in - South 2.3 mph - N/A   Clear
1:25 AM 53.6 °F 50.0 °F 88% 30.18 in - ESE 3.5 mph - N/A   Clear
1:55 AM 53.6 °F 50.0 °F 88% 30.18 in - SE 2.3 mph - N/A   Clear
2:00 AM 53 °F 50 °F 87% 30.18 in 28 mi SE 2.2 mph - -   Partly Cloudy
2:25 AM 55.4 °F 51.8 °F 88% 30.15 in - SE 2.3 mph - N/A   Clear
2:55 AM 53.6 °F 50.0 °F 88% 30.15 in - SSE 2.3 mph - N/A   Clear
3:25 AM 53.6 °F 50.0 °F 88% 30.15 in - South 4.6 mph - N/A   Clear
3:55 AM 51.8 °F 48.2 °F 88% 30.15 in - SSE 5.8 mph - N/A   Clear
4:25 AM 51.8 °F 50.0 °F 94% 30.15 in - South 3.5 mph - N/A   Clear
4:55 AM 53.6 °F 50.0 °F 88% 30.15 in - SSE 3.5 mph - N/A   Clear
5:00 AM 53 °F 50 °F 86% 30.16 in 12 mi SSE 4.5 mph - -  
5:25 AM 53.6 °F 50.0 °F 88% 30.15 in - SSW 3.5 mph - N/A   Clear
5:55 AM 55.4 °F 50.0 °F 82% 30.12 in - South 3.5 mph - N/A   Clear
6:25 AM 53.6 °F 50.0 °F 88% 30.12 in - SSE 4.6 mph - N/A   Clear
6:55 AM 53.6 °F 50.0 °F 88% 30.12 in - SSE 4.6 mph - N/A   Clear
7:25 AM 55.4 °F 53.6 °F 94% 30.12 in - South 5.8 mph - N/A   Clear
7:55 AM 57.2 °F 53.6 °F 88% 30.12 in - SSE 5.8 mph - N/A   Clear
8:00 AM 58 °F 54 °F 83% 30.14 in 7 mi SSE 6.7 mph - -   Partly Cloudy
8:25 AM 59.0 °F 55.4 °F 88% 30.12 in - SSE 5.8 mph - N/A   Clear
8:55 AM 60.8 °F 55.4 °F 82% 30.12 in - South 6.9 mph - N/A   Clear
9:25 AM 64.4 °F 55.4 °F 73% 30.12 in 6.2 mi South 8.1 mph - N/A   Partly Cloudy
9:55 AM 64.4 °F 55.4 °F 73% 30.12 in 6.2 mi South 8.1 mph - N/A   Mostly Cloudy
10:25 AM 64.4 °F 57.2 °F 77% 30.12 in 6.2 mi South 9.2 mph - N/A   Mostly Cloudy
10:55 AM 64.4 °F 57.2 °F 77% 30.12 in 6.2 mi South 10.4 mph - N/A   Mostly Cloudy
11:00 AM 64 °F 57 °F 72% 30.14 in 12 mi South 11.2 mph - -   Overcast
11:25 AM 64.4 °F 59.0 °F 83% 30.12 in 3.7 mi South 12.7 mph - N/A Rain Light Rain
11:55 AM 62.6 °F 60.8 °F 94% 30.12 in 2.8 mi SSW 12.7 mph - N/A Rain Light Rain
12:25 PM 62.6 °F 60.8 °F 94% 30.12 in - South 11.5 mph - N/A Rain Light Rain
12:55 PM 64.4 °F 62.6 °F 94% 30.12 in 3.1 mi South 11.5 mph - N/A Rain Light Rain
1:25 PM 62.6 °F 62.6 °F 100% 30.12 in 3.1 mi South 12.7 mph - N/A   Light Drizzle
1:55 PM 64.4 °F 62.6 °F 94% 30.12 in 3.1 mi South 12.7 mph - N/A   Mostly Cloudy
2:00 PM 64 °F 63 °F 94% 30.13 in 4 mi South 11.2 mph - - Rain Rain
2:25 PM 64.4 °F 62.6 °F 94% 30.09 in 3.7 mi South 10.4 mph - N/A   Light Drizzle
2:55 PM 66.2 °F 64.4 °F 94% 30.09 in 3.7 mi South 11.5 mph - N/A   Mostly Cloudy
3:25 PM 68.0 °F 64.4 °F 88% 30.09 in 5.0 mi South 12.7 mph - N/A   Mostly Cloudy
3:55 PM 68.0 °F 64.4 °F 88% 30.09 in 6.2 mi SSW 11.5 mph - N/A   Partly Cloudy
4:25 PM 68.0 °F 62.6 °F 83% 30.09 in 6.2 mi SSW 15.0 mph - N/A   Partly Cloudy
4:55 PM 69.8 °F 62.6 °F 78% 30.09 in 6.2 mi SSW 13.8 mph - N/A   Scattered Clouds
5:00 PM 70 °F 62 °F 70% 30.10 in 9 mi SSW 13.4 mph - -   Partly Cloudy
5:25 PM 71.6 °F 62.6 °F 73% 30.09 in 6.2 mi SSW 15.0 mph - N/A   Scattered Clouds
5:55 PM 69.8 °F 62.6 °F 78% 30.06 in 6.2 mi SSW 10.4 mph - N/A   Scattered Clouds
6:25 PM 71.6 °F 62.6 °F 73% 30.06 in 6.2 mi SSW 11.5 mph - N/A   Partly Cloudy
6:55 PM 71.6 °F 59.0 °F 64% 30.06 in 6.2 mi SW 15.0 mph - N/A   Partly Cloudy
7:25 PM 69.8 °F 57.2 °F 64% 30.06 in 6.2 mi SW 17.3 mph - N/A   Partly Cloudy
7:55 PM 69.8 °F 57.2 °F 64% 30.06 in 6.2 mi SW 13.8 mph - N/A   Partly Cloudy
8:00 PM 70 °F 57 °F 55% 30.08 in 28 mi SW 13.4 mph - -   Partly Cloudy
8:25 PM 69.8 °F 57.2 °F 64% 30.06 in - SW 15.0 mph - N/A   Clear
8:55 PM 68.0 °F 59.0 °F 73% 30.06 in - SSW 9.2 mph - N/A   Clear
9:25 PM 66.2 °F 59.0 °F 78% 30.06 in - SSW 8.1 mph - N/A   Clear
9:55 PM 64.4 °F 57.2 °F 77% 30.06 in - SSW 8.1 mph - N/A   Clear
10:25 PM 62.6 °F 57.2 °F 82% 30.06 in - SSW 9.2 mph - N/A   Clear
10:55 PM 64.4 °F 59.0 °F 83% 30.06 in - SSW 10.4 mph - N/A   Clear
11:25 PM 62.6 °F 59.0 °F 88% 30.06 in - South 8.1 mph - N/A   Clear
11:55 PM 60.8 °F 57.2 °F 88% 30.06 in - SSE 5.8 mph - N/A   Clear